When you browse on this site, cookies collect data to enhance your experience and personalize the content and advertising you see.
Visit our Privacy Policy to learn more. By continuing to use the site, you agree to this use of cookies and data.
  • în România
  • Lista ţărilor
  • Pe 7 zile
  • Temperatura apei
  • Hartă satelitară
  • Meteo pe hartă
  • Widget-uri
  • user-avatar
    Intrare

    Meteo pe oră la Resht

    Astăzi, 26 Martie, Marţi

    Timp Temperatura Precipitaţii Vânt Presiune Umiditate
    00:00 +9°C° 0.3 mm 2 m/s 761 mmHg 90%
    01:00 +9°C° 0.2 mm 2 m/s 761 mmHg 90%
    02:00 +9°C° 0.2 mm 2 m/s 761 mmHg 90%
    03:00 +9°C° 0 mm 1 m/s 761 mmHg 89%
    04:00 +9°C° 0.1 mm 1 m/s 762 mmHg 89%
    05:00 +9°C° 0.1 mm 1 m/s 762 mmHg 89%
    06:00 +9°C° 0.1 mm 1 m/s 762 mmHg 89%
    07:00 +10°C° 0.1 mm 1 m/s 762 mmHg 86%
    08:00 +10°C° 0.1 mm 1 m/s 762 mmHg 84%
    09:00 +11°C° 0.1 mm 1 m/s 762 mmHg 81%
    10:00 +11°C° 0.1 mm 1 m/s 761 mmHg 82%
    11:00 +11°C° 0.1 mm 1 m/s 761 mmHg 82%
    12:00 +10°C° 0.1 mm 2 m/s 761 mmHg 82%
    13:00 +10°C° 0.1 mm 2 m/s 761 mmHg 83%
    14:00 +10°C° 0.1 mm 2 m/s 760 mmHg 83%
    15:00 +10°C° 0.1 mm 2 m/s 760 mmHg 84%
    16:00 +11°C° 0.1 mm 1 m/s 760 mmHg 86%
    17:00 +10°C° 0.1 mm 1 m/s 760 mmHg 88%
    18:00 +10°C° 0.1 mm 1 m/s 760 mmHg 90%
    19:00 +10°C° 0.6 mm 1 m/s 760 mmHg 91%
    20:00 +8°C° 0.6 mm 0 m/s 761 mmHg 92%
    21:00 +8°C° 0.6 mm 0 m/s 761 mmHg 92%
    22:00 +8°C° 0.5 mm 0 m/s 761 mmHg 91%
    23:00 +8°C° 0.5 mm 0 m/s 761 mmHg 90%

    Mâine, 27 Martie, Miercuri

    Timp Temperatura Precipitaţii Vânt Presiune Umiditate
    00:00 +8°C° 0.5 mm 0 m/s 761 mmHg 88%
    01:00 +8°C° 0 mm 0 m/s 760 mmHg 89%
    02:00 +9°C° 0 mm 1 m/s 760 mmHg 89%
    03:00 +9°C° 0 mm 1 m/s 760 mmHg 89%
    04:00 +9°C° 0 mm 1 m/s 760 mmHg 87%
    05:00 +9°C° 0 mm 1 m/s 760 mmHg 86%
    06:00 +9°C° 0 mm 1 m/s 760 mmHg 85%
    07:00 +11°C° 0 mm 1 m/s 760 mmHg 79%
    08:00 +13°C° 0 mm 2 m/s 760 mmHg 73%
    09:00 +15°C° 0 mm 2 m/s 760 mmHg 68%
    10:00 +16°C° 0 mm 3 m/s 760 mmHg 62%
    11:00 +18°C° 0 mm 3 m/s 760 mmHg 57%
    12:00 +20°C° 0 mm 3 m/s 760 mmHg 52%
    13:00 +20°C° 0 mm 3 m/s 759 mmHg 53%
    14:00 +20°C° 0 mm 4 m/s 759 mmHg 53%
    15:00 +20°C° 0 mm 4 m/s 759 mmHg 54%
    16:00 +18°C° 0 mm 3 m/s 759 mmHg 60%
    17:00 +17°C° 0 mm 3 m/s 759 mmHg 66%
    18:00 +15°C° 0 mm 2 m/s 759 mmHg 72%
    19:00 +15°C° 0 mm 2 m/s 760 mmHg 71%
    20:00 +15°C° 0 mm 1 m/s 760 mmHg 69%
    21:00 +14°C° 0 mm 1 m/s 761 mmHg 67%
    22:00 +14°C° 0 mm 1 m/s 761 mmHg 65%
    23:00 +14°C° 0 mm 1 m/s 761 mmHg 63%

    Poimâine, 28 Martie, Joi

    Timp Temperatura Precipitaţii Vânt Presiune Umiditate
    00:00 +14°C° 0 mm 1 m/s 761 mmHg 61%
    01:00 +14°C° 0 mm 1 m/s 761 mmHg 60%
    02:00 +14°C° 0 mm 1 m/s 761 mmHg 60%
    03:00 +13°C° 0 mm 1 m/s 761 mmHg 60%
    04:00 +13°C° 0 mm 1 m/s 761 mmHg 60%
    05:00 +13°C° 0 mm 1 m/s 761 mmHg 59%
    06:00 +13°C° 0 mm 1 m/s 762 mmHg 59%
    07:00 +15°C° 0 mm 1 m/s 762 mmHg 56%
    08:00 +18°C° 0 mm 1 m/s 762 mmHg 53%
    09:00 +19°C° 0 mm 2 m/s 762 mmHg 50%
    10:00 +19°C° 0 mm 2 m/s 762 mmHg 51%
    11:00 +20°C° 0 mm 2 m/s 762 mmHg 51%
    12:00 +20°C° 0 mm 3 m/s 762 mmHg 51%
    13:00 +20°C° 0.1 mm 3 m/s 761 mmHg 55%
    14:00 +19°C° 0.1 mm 3 m/s 761 mmHg 58%
    15:00 +19°C° 0.1 mm 3 m/s 761 mmHg 62%
    16:00 +18°C° 0.1 mm 3 m/s 761 mmHg 69%
    17:00 +16°C° 0.1 mm 2 m/s 761 mmHg 75%
    18:00 +15°C° 0.1 mm 2 m/s 761 mmHg 82%
    19:00 +15°C° 0 mm 1 m/s 762 mmHg 85%
    20:00 +14°C° 0 mm 1 m/s 762 mmHg 87%
    21:00 +13°C° 0 mm 0 m/s 763 mmHg 90%
    22:00 +12°C° 0 mm 0 m/s 762 mmHg 89%
    23:00 +13°C° 0 mm 1 m/s 762 mmHg 89%

    29 Martie, Vineri

    Timp Temperatura Precipitaţii Vânt Presiune Umiditate
    00:00 +13°C° 0 mm 1 m/s 762 mmHg 89%
    01:00 +13°C° 0 mm 1 m/s 762 mmHg 87%
    02:00 +13°C° 0 mm 1 m/s 762 mmHg 86%
    03:00 +13°C° 0 mm 1 m/s 763 mmHg 85%
    04:00 +12°C° 0 mm 1 m/s 763 mmHg 85%
    05:00 +12°C° 0 mm 1 m/s 763 mmHg 85%
    06:00 +12°C° 0 mm 1 m/s 764 mmHg 85%
    07:00 +13°C° 0 mm 1 m/s 764 mmHg 80%
    08:00 +15°C° 0 mm 1 m/s 764 mmHg 75%
    09:00 +16°C° 0 mm 1 m/s 764 mmHg 69%
    10:00 +17°C° 0 mm 2 m/s 763 mmHg 66%
    11:00 +18°C° 0 mm 3 m/s 763 mmHg 63%
    12:00 +19°C° 0 mm 3 m/s 762 mmHg 60%
    13:00 +19°C° 0 mm 3 m/s 762 mmHg 62%
    14:00 +19°C° 0 mm 3 m/s 762 mmHg 63%
    15:00 +18°C° 0 mm 4 m/s 761 mmHg 65%
    16:00 +17°C° 0 mm 3 m/s 762 mmHg 71%
    17:00 +16°C° 0 mm 3 m/s 762 mmHg 77%
    18:00 +14°C° 0 mm 2 m/s 762 mmHg 83%
    19:00 +14°C° 0 mm 2 m/s 763 mmHg 85%
    20:00 +13°C° 0 mm 2 m/s 764 mmHg 86%
    21:00 +13°C° 0 mm 2 m/s 764 mmHg 88%
    22:00 +13°C° 0 mm 2 m/s 765 mmHg 88%
    23:00 +13°C° 0 mm 2 m/s 765 mmHg 88%

    30 Martie, Sâmbătă

    Timp Temperatura Precipitaţii Vânt Presiune Umiditate
    00:00 +12°C° 0 mm 2 m/s 765 mmHg 87%
    01:00 +12°C° 0.1 mm 2 m/s 765 mmHg 88%
    02:00 +12°C° 0.1 mm 2 m/s 765 mmHg 88%
    03:00 +12°C° 0.1 mm 2 m/s 765 mmHg 88%
    04:00 +12°C° 0.1 mm 2 m/s 765 mmHg 88%
    05:00 +11°C° 0.1 mm 3 m/s 765 mmHg 88%
    06:00 +11°C° 0.1 mm 3 m/s 766 mmHg 88%
    07:00 +11°C° 0.1 mm 3 m/s 766 mmHg 85%
    08:00 +11°C° 0.1 mm 3 m/s 766 mmHg 83%
    09:00 +12°C° 0.1 mm 3 m/s 766 mmHg 80%
    10:00 +12°C° 0 mm 3 m/s 766 mmHg 79%
    11:00 +13°C° 0 mm 3 m/s 766 mmHg 79%
    12:00 +13°C° 0 mm 3 m/s 765 mmHg 78%
    13:00 +13°C° 0.1 mm 3 m/s 765 mmHg 78%
    14:00 +13°C° 0.1 mm 3 m/s 765 mmHg 78%
    15:00 +13°C° 0.1 mm 3 m/s 765 mmHg 79%
    16:00 +12°C° 0.1 mm 3 m/s 765 mmHg 81%
    17:00 +13°C° 0.1 mm 2 m/s 765 mmHg 83%
    18:00 +12°C° 0.1 mm 2 m/s 765 mmHg 85%
    19:00 +12°C° 0 mm 2 m/s 766 mmHg 86%
    20:00 +12°C° 0 mm 1 m/s 766 mmHg 87%
    21:00 +11°C° 0 mm 1 m/s 767 mmHg 87%
    22:00 +11°C° 0.1 mm 1 m/s 766 mmHg 88%
    23:00 +11°C° 0.1 mm 1 m/s 766 mmHg 88%

    31 Martie, Duminică

    Timp Temperatura Precipitaţii Vânt Presiune Umiditate
    00:00 +10°C° 0.1 mm 0 m/s 766 mmHg 88%
    01:00 +10°C° 0.1 mm 0 m/s 766 mmHg 88%
    02:00 +10°C° 0.1 mm 0 m/s 766 mmHg 88%
    03:00 +10°C° 0.1 mm 0 m/s 765 mmHg 88%
    04:00 +10°C° 0.1 mm 0 m/s 765 mmHg 88%
    05:00 +11°C° 0.1 mm 1 m/s 765 mmHg 88%
    06:00 +11°C° 0.1 mm 1 m/s 765 mmHg 88%
    07:00 +12°C° 0 mm 1 m/s 765 mmHg 85%
    08:00 +12°C° 0 mm 1 m/s 765 mmHg 81%
    09:00 +13°C° 0 mm 1 m/s 764 mmHg 77%
    10:00 +13°C° 0 mm 1 m/s 764 mmHg 77%
    11:00 +14°C° 0 mm 2 m/s 763 mmHg 76%
    12:00 +14°C° 0 mm 2 m/s 762 mmHg 75%
    13:00 +14°C° 0.3 mm 2 m/s 762 mmHg 79%
    14:00 +13°C° 0.3 mm 2 m/s 761 mmHg 82%
    15:00 +13°C° 0.3 mm 2 m/s 761 mmHg 85%
    16:00 +13°C° 0 mm 2 m/s 760 mmHg 87%
    17:00 +12°C° 0 mm 2 m/s 760 mmHg 89%
    18:00 +12°C° 0 mm 1 m/s 759 mmHg 91%
    19:00 +12°C° 0 mm 2 m/s 759 mmHg 92%
    20:00 +10°C° 0 mm 2 m/s 760 mmHg 92%
    21:00 +10°C° 0 mm 2 m/s 760 mmHg 93%
    22:00 +10°C° 0 mm 2 m/s 759 mmHg 91%
    23:00 +10°C° 0 mm 2 m/s 759 mmHg 90%
    Arată mai mult